Lexington, NE

12:10 PM CDT on July 22, 2017 (GMT -0500)
Kelly

Weather History for KLXN - September, 2013

Change the Weather History Date:

Thursday, September 19, 2013

  Actual Average Record
Temperature  
Mean Temperature 62 °F -  
Max Temperature 69 °F 72 °F 92 °F (2014)
Min Temperature 48 °F 46 °F 32 °F (2003)
Degree Days  
Heating Degree Days 2    
Growing Degree Days 12 (Base 50)    
Moisture  
Dew Point 54 °F    
Average Humidity 76    
Maximum Humidity 94    
Minimum Humidity 46    
Precipitation  
Precipitation 0.07 in - - ()
Sea Level Pressure  
Sea Level Pressure 29.94 in    
Wind  
Wind Speed 11 mph (NNW)    
Max Wind Speed 28 mph    
Max Gust Speed 38 mph    
Visibility 10 miles    
Events Rain , Thunderstorm    
Averages and records for this station are not official NWS values.
T = Trace of Precipitation, MM = Missing Value Source: NWS Daily Summary

Daily Weather History Graph

Daily Weather History Graph

Search for Another Location

Airport or City:

Trip Planner

Search our weather history database for the weather conditions in past years. The results will help you decide how hot, cold, wet, or windy it might be!

Date:

Astronomy

Sep. 19, 2013 Rise Set
Actual Time 7:23 AM CDT 7:40 PM CDT
Civil Twilight 6:56 AM CDT 8:08 PM CDT
Nautical Twilight 6:24 AM CDT 8:40 PM CDT
Astronomical Twilight 5:51 AM CDT 9:13 PM CDT
Moon 7:39 PM CDT (9/19) 7:35 AM CDT (9/19)
Length of Visible Light 13h 11m
Length of Day
12h 16m
Full, 100% of the Moon is Illuminated
Sep 19
Full
Sep 26
Last Quarter
Oct 4
New
Oct 11
First Quarter
Oct 18
Full

Hourly Weather History & Observations

Time (CDT) Temp. Dew Point Humidity Pressure Visibility Wind Dir Wind Speed Gust Speed Precip Events Conditions
12:15 AM 77.2 °F 64.9 °F 66% 29.76 in 10.0 mi West 17.3 mph 28.8 mph N/A   Scattered Clouds
12:35 AM 74.3 °F 56.1 °F 53% 29.80 in 10.0 mi NW 27.6 mph 38.0 mph N/A   Mostly Cloudy
12:55 AM 69.6 °F 58.1 °F 67% 29.77 in 10.0 mi NW 13.8 mph 18.4 mph N/A Thunderstorm Scattered Clouds
1:15 AM 68.7 °F 58.1 °F 69% 29.76 in 10.0 mi NNW 6.9 mph - N/A   Scattered Clouds
1:35 AM 68.0 °F 58.1 °F 71% 29.76 in 10.0 mi Calm Calm - N/A   Clear
1:55 AM 66.0 °F 58.1 °F 76% 29.77 in 10.0 mi West 5.8 mph - N/A   Clear
2:15 AM 66.0 °F 58.5 °F 77% 29.79 in 10.0 mi West 8.1 mph - N/A   Clear
2:35 AM 64.6 °F 58.5 °F 80% 29.78 in 10.0 mi Calm Calm - N/A   Clear
2:55 AM 64.6 °F 58.5 °F 80% 29.78 in 10.0 mi Calm Calm - N/A   Clear
3:15 AM 64.2 °F 58.6 °F 82% 29.75 in 10.0 mi ESE 6.9 mph - N/A   Clear
3:35 AM 65.5 °F 58.3 °F 77% 29.74 in 10.0 mi ESE 5.8 mph - N/A   Clear
3:55 AM 64.0 °F 59.2 °F 84% 29.78 in 10.0 mi WSW 6.9 mph - N/A Thunderstorm Clear
4:15 AM 64.2 °F 59.5 °F 85% 29.79 in 10.0 mi SE 5.8 mph - N/A Thunderstorm Scattered Clouds
4:35 AM 65.5 °F 59.4 °F 81% 29.80 in 10.0 mi ESE 3.5 mph - N/A   Mostly Cloudy
4:55 AM 64.4 °F 59.9 °F 85% 29.82 in 10.0 mi SSE 4.6 mph - N/A Rain Heavy Rain
5:15 AM 63.5 °F 60.6 °F 90% 29.78 in 10.0 mi SSW 3.5 mph - 0.06 in Rain , Thunderstorm Light Thunderstorms and Rain
5:35 AM 62.8 °F 60.8 °F 93% 29.78 in 10.0 mi West 5.8 mph - 0.06 in Thunderstorm Scattered Clouds
5:55 AM 63.5 °F 60.8 °F 91% 29.80 in 10.0 mi NW 9.2 mph - 0.06 in Rain , Thunderstorm Light Thunderstorms and Rain
6:15 AM 63.1 °F 60.8 °F 92% 29.83 in 10.0 mi East 3.5 mph - N/A Rain Light Rain
6:35 AM 63.0 °F 61.0 °F 93% 29.81 in 10.0 mi East 8.1 mph - N/A Rain Light Rain
6:55 AM 62.4 °F 60.3 °F 93% 29.80 in 10.0 mi NNE 4.6 mph - N/A   Clear
7:15 AM 62.1 °F 59.9 °F 93% 29.81 in 10.0 mi NNW 8.1 mph - 0.01 in   Clear
7:35 AM 61.7 °F 59.9 °F 94% 29.85 in 10.0 mi West 8.1 mph - 0.01 in   Clear
7:55 AM 61.9 °F 59.9 °F 93% 29.88 in 10.0 mi WNW 3.5 mph - 0.01 in   Clear
8:15 AM 62.2 °F 60.4 °F 94% 29.89 in 10.0 mi NNW 3.5 mph - N/A   Clear
8:35 AM 62.4 °F 60.8 °F 94% 29.90 in 10.0 mi NW 6.9 mph - N/A   Scattered Clouds
8:55 AM 63.1 °F 60.8 °F 92% 29.90 in 10.0 mi NNW 9.2 mph - N/A   Mostly Cloudy
9:15 AM 62.8 °F 59.0 °F 87% 29.92 in 10.0 mi NNW 12.7 mph 16.1 mph N/A   Overcast
9:35 AM 63.0 °F 58.1 °F 84% 29.94 in 10.0 mi NNW 11.5 mph - N/A   Overcast
9:55 AM 62.6 °F 56.3 °F 80% 29.95 in 10.0 mi NNW 15.0 mph 20.7 mph N/A   Overcast
10:15 AM 61.9 °F 54.9 °F 78% 29.94 in 10.0 mi North 13.8 mph - N/A Rain Light Rain
10:35 AM 61.3 °F 55.0 °F 80% 29.92 in 10.0 mi NNE 12.7 mph 20.7 mph N/A Rain Light Rain
10:55 AM 62.1 °F 54.7 °F 77% 29.95 in 10.0 mi North 10.4 mph 19.6 mph N/A   Scattered Clouds
11:15 AM 62.6 °F 54.3 °F 74% 30.00 in 10.0 mi WNW 10.4 mph - N/A   Clear
11:35 AM 62.8 °F 53.4 °F 71% 30.03 in 10.0 mi NW 12.7 mph 16.1 mph N/A   Mostly Cloudy
11:55 AM 63.3 °F 53.4 °F 70% 30.01 in 10.0 mi NNW 13.8 mph - N/A Rain Light Rain
12:15 PM 63.3 °F 53.1 °F 69% 30.01 in 10.0 mi NNW 18.4 mph 23.0 mph N/A   Overcast
12:35 PM 65.8 °F 52.7 °F 62% 30.01 in 10.0 mi NNW 18.4 mph 28.8 mph N/A   Scattered Clouds
12:55 PM 66.2 °F 51.1 °F 58% 30.01 in 10.0 mi North 23.0 mph 33.4 mph N/A   Mostly Cloudy
1:15 PM 67.1 °F 51.4 °F 57% 30.02 in 10.0 mi NNW 16.1 mph 26.5 mph N/A   Overcast
1:35 PM 65.7 °F 51.4 °F 60% 30.01 in 10.0 mi North 23.0 mph 29.9 mph N/A   Scattered Clouds
1:55 PM 66.0 °F 51.4 °F 59% 30.00 in 10.0 mi North 19.6 mph 28.8 mph N/A   Clear
2:15 PM 65.8 °F 48.4 °F 53% 29.99 in 10.0 mi North 19.6 mph 25.3 mph N/A   Scattered Clouds
2:35 PM 67.1 °F 47.5 °F 49% 29.99 in 10.0 mi North 16.1 mph 28.8 mph N/A   Mostly Cloudy
2:55 PM 68.5 °F 46.9 °F 46% 29.99 in 10.0 mi North 19.6 mph 24.2 mph N/A   Scattered Clouds
3:15 PM 67.5 °F 47.5 °F 49% 29.98 in 10.0 mi NNE 12.7 mph 21.9 mph N/A   Mostly Cloudy
3:35 PM 66.9 °F 48.2 °F 51% 30.00 in 10.0 mi North 17.3 mph - N/A   Overcast
3:55 PM 66.2 °F 49.3 °F 54% 30.01 in 10.0 mi North 15.0 mph 25.3 mph N/A   Scattered Clouds
4:15 PM 66.4 °F 51.8 °F 59% 30.01 in 10.0 mi North 18.4 mph 24.2 mph N/A   Mostly Cloudy
4:35 PM 63.9 °F 52.2 °F 66% 30.01 in 10.0 mi North 13.8 mph 20.7 mph N/A   Mostly Cloudy
4:55 PM 63.5 °F 53.1 °F 69% 30.02 in 10.0 mi North 15.0 mph 20.7 mph N/A   Overcast
5:15 PM 63.0 °F 52.3 °F 68% 30.03 in 10.0 mi NNW 16.1 mph 20.7 mph N/A   Overcast
5:35 PM 63.1 °F 52.7 °F 69% 30.02 in 10.0 mi North 12.7 mph - N/A   Overcast
5:55 PM 62.8 °F 52.0 °F 68% 30.02 in 10.0 mi NNW 12.7 mph - N/A   Overcast
6:15 PM 63.9 °F 50.4 °F 61% 30.02 in 10.0 mi North 12.7 mph - N/A   Scattered Clouds
6:35 PM 62.8 °F 49.1 °F 61% 30.02 in 10.0 mi North 15.0 mph - N/A   Clear
6:55 PM 61.3 °F 50.0 °F 66% 30.00 in 10.0 mi North 10.4 mph - N/A   Clear
7:15 PM 61.0 °F 50.7 °F 69% 30.02 in 10.0 mi NNW 5.8 mph - N/A   Clear
7:35 PM 59.4 °F 51.8 °F 76% 30.03 in 10.0 mi NW 5.8 mph - N/A   Scattered Clouds
7:55 PM 58.6 °F 52.0 °F 79% 30.04 in 10.0 mi NW 6.9 mph - N/A   Scattered Clouds
8:15 PM 57.0 °F 51.8 °F 83% 30.04 in 10.0 mi NW 5.8 mph - N/A   Clear
8:35 PM 55.2 °F 51.6 °F 88% 30.05 in 10.0 mi Calm Calm - N/A   Clear
8:55 PM 54.5 °F 50.9 °F 88% 30.06 in 10.0 mi Calm Calm - N/A   Clear
9:15 PM 54.3 °F 50.9 °F 88% 30.07 in 10.0 mi Calm Calm - N/A   Clear
9:35 PM 53.2 °F 50.0 °F 89% 30.08 in 10.0 mi Calm Calm - N/A   Scattered Clouds
9:55 PM 53.2 °F 49.6 °F 88% 30.10 in 10.0 mi Calm Calm - N/A   Clear
10:15 PM 51.6 °F 48.9 °F 90% 30.10 in 10.0 mi WSW 3.5 mph - N/A   Clear
10:35 PM 51.1 °F 48.7 °F 92% 30.11 in 10.0 mi West 4.6 mph - N/A   Clear
10:55 PM 49.8 °F 47.8 °F 93% 30.12 in 10.0 mi West 3.5 mph - N/A   Clear
11:15 PM 49.1 °F 47.3 °F 93% 30.13 in 10.0 mi WNW 4.6 mph - N/A   Clear
11:35 PM 48.6 °F 46.9 °F 94% 30.13 in 10.0 mi WNW 5.8 mph - N/A   Clear
11:55 PM 48.4 °F 46.8 °F 94% 30.13 in 10.0 mi WNW 3.5 mph - N/A   Clear